Weather History for KETB - March, 2014

Change the Weather History Date:

Tuesday, March 4, 2014

  Actual Average Record
Temperature  
Mean Temperature 14 °F -  
Max Temperature 19 °F 38 °F 62 °F (1983)
Min Temperature 10 °F 22 °F -5 °F (2002)
Degree Days  
Heating Degree Days 50    
Moisture  
Dew Point 5 °F    
Average Humidity 68    
Maximum Humidity 85    
Minimum Humidity 54    
Precipitation  
Precipitation 0.02 in - - ()
Sea Level Pressure  
Sea Level Pressure 30.22 in    
Wind  
Wind Speed 4 mph (WSW)    
Max Wind Speed 9 mph    
Max Gust Speed -    
Visibility 8 miles    
Events Snow    
Averages and records for this station are not official NWS values.
T = Trace of Precipitation, MM = Missing Value Source: NWS Daily Summary

Daily Weather History Graph

Daily Weather History Graph

Search for Another Location

Airport or City:

Trip Planner

Search our weather history database for the weather conditions in past years. The results will help you decide how hot, cold, wet, or windy it might be!

Date:

Astronomy

Mar. 04, 2014 Rise Set
Actual Time 6:23 AM CST 5:45 PM CST
Civil Twilight 5:55 AM CST 6:13 PM CST
Nautical Twilight 5:22 AM CST 6:46 PM CST
Astronomical Twilight 4:49 AM CST 7:20 PM CST
Moon 8:02 AM CST (3/4) 10:00 PM CST (3/4)
Length of Visible Light 12h 18m
Length of Day
11h 21m
Waxing Crescent, 15% of the Moon is Illuminated
Mar 4
Waxing Crescent
Mar 8
First Quarter
Mar 16
Full
Mar 23
Last Quarter
Mar 30
New

Hourly Weather History & Observations

Time (CST) Temp. Windchill Dew Point Humidity Pressure Visibility Wind Dir Wind Speed Gust Speed Precip Events Conditions
12:15 AM 12.2 °F 2.9 °F -0.4 °F 57% 30.30 in 10.0 mi SW 5.8 mph - N/A   Overcast
12:35 AM 12.2 °F 4.3 °F -0.4 °F 57% 30.30 in 10.0 mi WSW 4.6 mph - N/A   Overcast
12:55 AM 12.2 °F - -0.4 °F 57% 30.30 in 10.0 mi Calm Calm - N/A   Overcast
1:15 AM 12.2 °F 6.1 °F -0.4 °F 57% 30.29 in 7.0 mi SW 3.5 mph - N/A Snow Light Snow
1:35 AM 12.2 °F 6.1 °F 3.2 °F 67% 30.29 in 1.8 mi SW 3.5 mph - N/A Snow Light Snow
1:55 AM 10.4 °F - 5.0 °F 79% 30.28 in 2.0 mi Calm Calm - N/A Snow Light Snow
2:15 AM 10.4 °F - 5.0 °F 79% 30.28 in 1.5 mi Calm Calm - N/A Snow Light Snow
2:35 AM 10.4 °F - 6.8 °F 85% 30.27 in 1.2 mi Calm Calm - N/A Snow Light Snow
2:55 AM 10.4 °F - 6.8 °F 85% 30.27 in 1.2 mi Calm Calm - N/A Snow Snow
3:15 AM 10.4 °F - 6.8 °F 85% 30.26 in 0.8 mi Calm Calm - N/A Snow Snow
3:35 AM 10.4 °F 4.0 °F 6.8 °F 85% 30.25 in 1.5 mi SSW 3.5 mph - 0.01 in Snow Light Snow
3:55 AM 10.4 °F 2.2 °F 6.8 °F 85% 30.25 in 1.5 mi SSW 4.6 mph - 0.01 in Snow Light Snow
4:15 AM 10.4 °F 0.8 °F 6.8 °F 85% 30.25 in 1.5 mi SSW 5.8 mph - N/A Snow Light Snow
4:35 AM 10.4 °F 2.2 °F 6.8 °F 85% 30.25 in 1.5 mi SSW 4.6 mph - N/A Snow Light Snow
4:38 AM 10.4 °F 2.2 °F 6.8 °F 85% 30.25 in 1.5 mi SSW 4.6 mph - N/A Snow Light Snow
4:55 AM 10.4 °F 4.0 °F 5.0 °F 79% 30.24 in 2.5 mi South 3.5 mph - N/A Snow Light Snow
5:15 AM 10.4 °F 4.0 °F 5.0 °F 79% 30.24 in 2.0 mi South 3.5 mph - N/A Snow Light Snow
5:35 AM 10.4 °F 4.0 °F 5.0 °F 79% 30.23 in 2.5 mi South 3.5 mph - 0.01 in Snow Light Snow
5:55 AM 10.4 °F 2.2 °F 5.0 °F 79% 30.23 in 1.2 mi South 4.6 mph - 0.01 in Snow Light Snow
6:15 AM 10.4 °F 0.8 °F 5.0 °F 79% 30.23 in 4.0 mi SSW 5.8 mph - N/A Snow Light Snow
6:35 AM 10.4 °F -0.4 °F 5.0 °F 79% 30.23 in 10.0 mi SSW 6.9 mph - N/A   Overcast
6:55 AM 10.4 °F 0.8 °F 5.0 °F 79% 30.23 in 2.0 mi SSW 5.8 mph - N/A Snow Light Snow
7:15 AM 12.2 °F 2.9 °F 5.0 °F 73% 30.23 in 4.0 mi SSW 5.8 mph - N/A Snow Light Snow
7:35 AM 12.2 °F 2.9 °F 5.0 °F 73% 30.22 in 10.0 mi SSW 5.8 mph - N/A   Overcast
7:55 AM 12.2 °F 1.7 °F 5.0 °F 73% 30.21 in 10.0 mi SSW 6.9 mph - N/A   Overcast
8:15 AM 12.2 °F 2.9 °F 5.0 °F 73% 30.21 in 10.0 mi SSW 5.8 mph - N/A   Overcast
8:35 AM 12.2 °F 1.7 °F 5.0 °F 73% 30.21 in 10.0 mi SSW 6.9 mph - N/A   Overcast
8:50 AM 14.0 °F 6.5 °F 5.0 °F 67% 30.21 in 10.0 mi SW 4.6 mph - N/A   Overcast
9:15 AM 14.0 °F 3.9 °F 6.8 °F 73% 30.21 in 10.0 mi WSW 6.9 mph - N/A   Overcast
9:35 AM 15.8 °F 7.2 °F 6.8 °F 68% 30.20 in 10.0 mi WSW 5.8 mph - N/A   Overcast
9:55 AM 17.6 °F 7.3 °F 5.0 °F 58% 30.20 in 10.0 mi WSW 8.1 mph - N/A   Overcast
10:15 AM 17.6 °F 7.3 °F 5.0 °F 58% 30.18 in 10.0 mi WSW 8.1 mph - N/A   Overcast
10:35 AM 17.6 °F 6.4 °F 5.0 °F 58% 30.19 in 10.0 mi SW 9.2 mph - N/A   Overcast
10:55 AM 17.6 °F 9.3 °F 5.0 °F 58% 30.18 in 10.0 mi WSW 5.8 mph - N/A   Overcast
11:15 AM 17.6 °F 6.4 °F 5.0 °F 58% 30.19 in 10.0 mi West 9.2 mph - N/A   Overcast
11:35 AM 17.6 °F 9.3 °F 5.0 °F 58% 30.19 in 10.0 mi West 5.8 mph - N/A   Overcast
11:55 AM 17.6 °F 9.3 °F 5.0 °F 58% 30.18 in 10.0 mi West 5.8 mph - N/A   Overcast
12:10 PM 17.6 °F 8.2 °F 5.0 °F 58% 30.18 in 10.0 mi West 6.9 mph - N/A   Overcast
12:30 PM 17.6 °F 12.3 °F 5.0 °F 58% 30.17 in 10.0 mi WSW 3.5 mph - N/A   Overcast
12:50 PM 17.6 °F 9.3 °F 5.0 °F 58% 30.18 in 10.0 mi West 5.8 mph - N/A   Overcast
1:10 PM 17.6 °F 10.7 °F 5.0 °F 58% 30.18 in 10.0 mi West 4.6 mph - N/A   Overcast
1:30 PM 19.4 °F - 5.0 °F 54% 30.17 in 10.0 mi Calm Calm - N/A   Overcast
1:50 PM 17.6 °F - 5.0 °F 58% 30.18 in 10.0 mi Calm Calm - N/A   Overcast
2:10 PM 19.4 °F - 5.0 °F 54% 30.20 in 10.0 mi Calm Calm - N/A   Overcast
2:30 PM 19.4 °F 14.3 °F 5.0 °F 54% 30.17 in 10.0 mi WSW 3.5 mph - N/A   Overcast
2:50 PM 19.4 °F - 5.0 °F 54% 30.16 in 10.0 mi Calm Calm - N/A   Overcast
3:10 PM 19.4 °F 12.8 °F 5.0 °F 54% 30.17 in 10.0 mi WNW 4.6 mph - N/A   Overcast
3:30 PM 19.4 °F 14.3 °F 5.0 °F 54% 30.17 in 10.0 mi WSW 3.5 mph - N/A   Overcast
3:50 PM 19.4 °F - 5.0 °F 54% 30.17 in 10.0 mi Calm Calm - N/A   Overcast
4:10 PM 19.4 °F 14.3 °F 5.0 °F 54% 30.17 in 10.0 mi NW 3.5 mph - N/A   Overcast
4:30 PM 19.4 °F 14.3 °F 6.8 °F 58% 30.18 in 10.0 mi NW 3.5 mph - N/A   Overcast
4:50 PM 17.6 °F 10.7 °F 6.8 °F 63% 30.18 in 10.0 mi NNW 4.6 mph - N/A   Overcast
5:10 PM 17.6 °F 12.3 °F 8.6 °F 68% 30.18 in 10.0 mi NNW 3.5 mph - N/A   Overcast
5:30 PM 17.6 °F - 8.6 °F 68% 30.19 in 10.0 mi Calm Calm - N/A   Overcast
5:50 PM 17.6 °F 12.3 °F 8.6 °F 68% 30.19 in 10.0 mi NNW 3.5 mph - N/A   Overcast
6:10 PM 17.6 °F 10.7 °F 8.6 °F 68% 30.20 in 10.0 mi NNW 4.6 mph - N/A   Overcast
6:30 PM 17.6 °F - 8.6 °F 68% 30.20 in 10.0 mi Calm Calm - N/A   Overcast
6:50 PM 17.6 °F - 6.8 °F 63% 30.20 in 10.0 mi Calm Calm - N/A   Overcast
7:10 PM 17.6 °F - 6.8 °F 63% 30.20 in 10.0 mi Calm Calm - N/A   Overcast
7:30 PM 17.6 °F - 6.8 °F 63% 30.21 in 10.0 mi Calm Calm - N/A   Overcast
7:50 PM 17.6 °F - 6.8 °F 63% 30.21 in 10.0 mi Calm Calm - N/A   Overcast
8:10 PM 15.8 °F - 6.8 °F 68% 30.22 in 10.0 mi Calm Calm - N/A   Mostly Cloudy
8:30 PM 14.0 °F - 5.0 °F 67% 30.23 in 10.0 mi Calm Calm - N/A   Scattered Clouds
8:50 PM 14.0 °F - 6.8 °F 73% 30.23 in 10.0 mi Calm Calm - N/A   Scattered Clouds
9:10 PM 12.2 °F - 5.0 °F 73% 30.25 in 10.0 mi Calm Calm - N/A   Mostly Cloudy
9:30 PM 10.4 °F - 5.0 °F 79% 30.25 in 10.0 mi Calm Calm - N/A   Mostly Cloudy
9:50 PM 10.4 °F - 5.0 °F 79% 30.25 in 10.0 mi Calm Calm - N/A   Scattered Clouds
10:10 PM 12.2 °F 4.3 °F 5.0 °F 73% 30.25 in 10.0 mi NNE 4.6 mph - N/A   Scattered Clouds
10:30 PM 14.0 °F - 5.0 °F 67% 30.26 in 10.0 mi Calm Calm - N/A   Scattered Clouds
10:50 PM 14.0 °F - 6.8 °F 73% 30.26 in 10.0 mi Calm Calm - N/A   Overcast
11:10 PM 14.0 °F - 6.8 °F 73% 30.26 in 10.0 mi Calm Calm - N/A   Overcast
11:30 PM 14.0 °F 8.2 °F 6.8 °F 73% 30.27 in 10.0 mi NE 3.5 mph - N/A   Overcast
11:50 PM 14.0 °F 6.5 °F 6.8 °F 73% 30.26 in 10.0 mi NE 4.6 mph - N/A   Mostly Cloudy